| time (UTC) | temp F | wind direction | speed MPH | gust MPH | rain 1hr in | rain 24hr in | rain mn in | humidity % | barometer mb |
| 20260506024509 | 0 | 186 | 0.0 | 0.0 | 0.00 | 0.00 | 0.00 | 1018.1 | |
| 20260506023004 | 0 | 187 | 0.0 | 0.0 | 0.00 | 0.00 | 0.00 | 1018.2 | |
| 20260506021603 | 0 | 187 | 0.0 | 0.0 | 0.00 | 0.00 | 0.00 | 1018.1 | |
| 20260506020055 | 0 | 188 | 0.0 | 0.0 | 0.00 | 0.00 | 0.00 | 1017.9 | |
| 20260506014547 | 0 | 167 | 0.0 | 0.0 | 0.00 | 0.00 | 0.00 | 1017.9 | |
| 20260506013043 | 0 | 167 | 0.0 | 0.0 | 0.00 | 0.00 | 0.00 | 1017.9 | |
| 20260506011543 | 0 | 168 | 0.0 | 0.0 | 0.00 | 0.00 | 0.00 | 1017.8 | |
| 20260506010008 | 0 | 169 | 0.0 | 0.0 | 0.00 | 0.00 | 0.00 | 1017.9 | |
| 20260506004602 | 0 | 165 | 0.0 | 0.0 | 0.00 | 0.00 | 0.00 | 1017.9 | |
| 20260506003052 | 0 | 171 | 0.0 | 0.0 | 0.00 | 0.00 | 0.00 | 1017.8 | |
| 20260506001554 | 0 | 178 | 0.0 | 0.0 | 0.00 | 0.00 | 0.00 | 1017.7 | |
| 20260506000043 | 0 | 171 | 0.0 | 0.0 | 0.00 | 0.00 | 0.00 | 1017.7 | |
| 20260505234538 | 0 | 184 | 0.0 | 0.0 | 0.00 | 0.00 | 0.00 | 1017.6 | |
| 20260505233031 | 0 | 177 | 0.0 | 0.0 | 0.00 | 0.00 | 0.00 | 1017.7 | |
| 20260505231526 | 0 | 159 | 0.0 | 0.0 | 0.00 | 0.00 | 0.00 | 1017.7 | |
| 20260505230026 | 0 | 182 | 0.0 | 0.0 | 0.00 | 0.00 | 0.00 | 1017.8 | |
| 20260505224516 | 0 | 154 | 0.0 | 0.0 | 0.00 | 0.00 | 0.00 | 1017.8 | |
| 20260505223009 | 0 | 360 | 0.0 | 0.0 | 0.00 | 0.00 | 0.00 | 1017.9 | |
| 20260505221507 | 0 | 178 | 0.0 | 0.0 | 0.00 | 0.00 | 0.00 | 1017.8 | |
| 20260505220100 | 0 | 169 | 0.0 | 0.0 | 0.00 | 0.00 | 0.00 | 1018.0 | |
| 20260505214624 | 0 | 182 | 0.0 | 0.0 | 0.00 | 0.00 | 0.00 | 1017.8 | |
| 20260505213050 | 0 | 173 | 0.0 | 0.0 | 0.00 | 0.00 | 0.00 | 1017.8 | |
| 20260505211547 | 0 | 173 | 0.0 | 0.0 | 0.00 | 0.00 | 0.00 | 1018.1 | |
| 20260505210043 | 0 | 178 | 0.0 | 0.0 | 0.00 | 0.00 | 0.00 | 1018.0 | |
| 20260505204536 | 0 | 171 | 0.0 | 0.0 | 0.00 | 0.00 | 0.00 | 1018.0 | |
| 20260505203002 | 0 | 173 | 0.0 | 0.0 | 0.00 | 0.00 | 0.00 | 1018.1 | |
| 20260505201559 | 0 | 173 | 0.0 | 0.0 | 0.00 | 0.00 | 0.00 | 1017.9 | |
| 20260505200054 | 0 | 175 | 0.0 | 0.0 | 0.00 | 0.00 | 0.00 | 1017.9 | |
| 20260505194518 | 0 | 180 | 0.0 | 0.0 | 0.00 | 0.00 | 0.00 | 1018.3 | |
| 20260505193014 | 0 | 182 | 0.0 | 0.0 | 0.00 | 0.00 | 0.00 | 1018.8 | |
| 20260505191508 | 0 | 182 | 0.0 | 0.0 | 0.00 | 0.00 | 0.00 | 1018.9 | |
| 20260505190003 | 0 | 186 | 0.0 | 0.0 | 0.00 | 0.00 | 0.00 | 1018.9 | |
| 20260505184604 | 0 | 174 | 0.0 | 0.0 | 0.00 | 0.00 | 0.00 | 1018.8 | |
| 20260505183119 | 0 | 180 | 0.0 | 0.0 | 0.00 | 0.00 | 0.00 | 1018.9 | |
| 20260505181548 | 0 | 161 | 0.0 | 0.0 | 0.00 | 0.00 | 0.00 | 1019.1 | |
| 20260505180046 | 0 | 158 | 0.0 | 0.0 | 0.00 | 0.00 | 0.00 | 1019.1 | |
| 20260505174540 | 0 | 136 | 0.0 | 0.0 | 0.00 | 0.00 | 0.00 | 1019.2 | |
| 20260505173044 | 0 | 136 | 0.0 | 0.0 | 0.00 | 0.00 | 0.00 | 1019.3 | |
| 20260505171541 | 0 | 127 | 0.0 | 0.0 | 0.00 | 0.00 | 0.00 | 1019.5 | |
| 20260505170023 | 0 | 125 | 0.0 | 0.0 | 0.00 | 0.00 | 0.00 | 1019.6 | |
| 20260505164518 | 0 | 123 | 0.0 | 0.0 | 0.00 | 0.00 | 0.00 | 1019.6 | |
| 20260505163014 | 0 | 123 | 0.0 | 0.0 | 0.00 | 0.00 | 0.00 | 1019.5 | |
| 20260505161507 | 0 | 121 | 0.0 | 0.0 | 0.00 | 0.00 | 0.00 | 1019.7 | |
| 20260505153054 | 0 | 126 | 0.0 | 0.0 | 0.00 | 0.00 | 0.00 | 1019.7 | |
| 20260505151547 | 0 | 124 | 0.0 | 0.0 | 0.00 | 0.00 | 0.00 | 1019.7 | |
| 20260505124559 | 0 | 95 | 0.0 | 0.0 | 0.00 | 0.00 | 0.00 | 1019.2 | |
| 20260505123054 | 0 | 95 | 0.0 | 0.0 | 0.00 | 0.00 | 0.00 | 1019.0 | |
| 20260505121521 | 0 | 187 | 0.0 | 0.0 | 0.00 | 0.00 | 0.00 | 1018.9 | |
| 20260505120043 | 0 | 187 | 0.0 | 0.0 | 0.00 | 0.00 | 0.00 | 1019.0 | |
| 20260505114511 | 0 | 187 | 0.0 | 0.0 | 0.00 | 0.00 | 0.00 | 1018.9 | |
| 20260505113005 | 0 | 187 | 0.0 | 0.0 | 0.00 | 0.00 | 0.00 | 1018.6 | |
| 20260505111505 | 0 | 187 | 0.0 | 0.0 | 0.00 | 0.00 | 0.00 | 1018.4 | |
| 20260505101554 | 0 | 176 | 0.0 | 0.0 | 0.00 | 0.00 | 0.00 | 1017.5 | |
| 20260505100048 | 0 | 175 | 0.0 | 0.0 | 0.00 | 0.00 | 0.00 | 1017.6 | |
| 20260505094543 | 0 | 175 | 0.0 | 0.0 | 0.00 | 0.00 | 0.00 | 1017.4 | |
| 20260505093041 | 0 | 175 | 0.0 | 0.0 | 0.00 | 0.00 | 0.00 | 1017.3 | |
| 20260505091536 | 0 | 175 | 0.0 | 0.0 | 0.00 | 0.00 | 0.00 | 1017.2 | |
| 20260505090043 | 0 | 175 | 0.0 | 0.0 | 0.00 | 0.00 | 0.00 | 1017.0 | |
| 20260505084505 | 0 | 175 | 0.0 | 0.0 | 0.00 | 0.00 | 0.00 | 1017.0 | |
| 20260505083101 | 0 | 175 | 0.0 | 0.0 | 0.00 | 0.00 | 0.00 | 1017.0 | |
| 20260505081604 | 0 | 175 | 0.0 | 0.0 | 0.00 | 0.00 | 0.00 | 1017.0 | |
| 20260505080049 | 0 | 175 | 0.0 | 0.0 | 0.00 | 0.00 | 0.00 | 1017.0 | |
| 20260505074549 | 0 | 175 | 0.0 | 0.0 | 0.00 | 0.00 | 0.00 | 1017.0 | |
| 20260505073059 | 0 | 175 | 0.0 | 0.0 | 0.00 | 0.00 | 0.00 | 1017.0 | |
| 20260505071537 | 0 | 175 | 0.0 | 0.0 | 0.00 | 0.00 | 0.00 | 1017.1 | |
| 20260505070031 | 0 | 175 | 0.0 | 0.0 | 0.00 | 0.00 | 0.00 | 1017.1 | |
| 20260505064539 | 0 | 175 | 0.0 | 0.0 | 0.00 | 0.00 | 0.00 | 1017.2 | |
| 20260505063030 | 0 | 175 | 0.0 | 0.0 | 0.00 | 0.00 | 0.00 | 1017.3 | |
| 20260505061545 | 0 | 175 | 0.0 | 0.0 | 0.00 | 0.00 | 0.00 | 1017.4 | |
| 20260505060028 | 0 | 175 | 0.0 | 0.0 | 0.00 | 0.00 | 0.00 | 1017.6 | |
| 20260505054544 | 0 | 173 | 0.0 | 0.0 | 0.00 | 0.00 | 0.00 | 1017.7 | |
| 20260505053030 | 0 | 173 | 0.0 | 0.0 | 0.00 | 0.00 | 0.00 | 1017.9 | |
| 20260505051526 | 0 | 173 | 0.0 | 0.0 | 0.00 | 0.00 | 0.00 | 1017.9 | |
| 20260505041521 | 0 | 173 | 0.0 | 0.0 | 0.00 | 0.00 | 0.00 | 1018.2 | |
| 20260505040019 | 0 | 175 | 0.0 | 0.0 | 0.00 | 0.00 | 0.00 | 1018.0 | |
| 20260505034519 | 0 | 200 | 0.0 | 0.0 | 0.00 | 0.00 | 0.00 | 1018.1 | |
| 20260505033021 | 0 | 174 | 0.0 | 0.0 | 0.00 | 0.00 | 0.00 | 1018.0 | |
| 20260505031537 | 0 | 257 | 0.0 | 0.0 | 0.00 | 0.00 | 0.00 | 1018.1 | |
| 20260505030046 | 0 | 200 | 0.0 | 0.0 | 0.00 | 0.00 | 0.00 | 1018.1 |